Flag for Canada Weather past 2 weeks in St. John's, Newfoundland and Labrador, Canada

Now
63 °F

Overcast.


Feels Like: 63 °F
Forecast: 57 / 73 °F
Wind: 3 mph from Southwest

Location: St. John's

Current Time: Aug 30, 2015 at 10:01:06 AM

Latest Report: Aug 30, 2015 at 9:30 AM


Visibility: 15 mi

Pressure: 30.02 "Hg

Humidity: 77%

Dew point: 55 °F

Location of St. John'sLocation

Historic Weather in St. John's — Graph

°F

St. John's temperature yesterday

Maximum temperature yesterday: 75 °F (at 3:30 PM)
Minimum temperature yesterday: 57 °F (at 4:30 AM)
Average temperature yesterday: 65 °F

Past Weeks' High & Low Weather Summary

 TemperatureHumidityPressure
High81 °F (Aug 18, 1:30 PM)100% (Aug 21, 7:23 AM)30.43 "Hg (Aug 21, 7:23 AM)
Low50 °F (Aug 26, 1:30 AM)50% (Aug 29, 5:30 PM)29.80 "Hg (Aug 28, 4:30 PM)
Average63 °F83%30.10 "Hg
* Reported Aug 15 8:30 AM — Aug 30 8:30 AM, St. John's, Weather by CustomWeather, © 2015

Note: Actual official high and low records may vary slightly from our data, if they occured in-between our weather recording intervals... More about our weather records

Advertising

St. John's weather history for previous 24 hours

 ConditionsComfort  
Time TempWeatherWind HumidityBarometerVisibility
8:30 AM
Sun, Aug 30
59 °FMore clouds than sun.7 mph82%30.01 "Hg15 mi
7:30 AM57 °FMore clouds than sun.8 mph88%30.01 "Hg15 mi
6:30 AM55 °FPassing clouds.8 mph94%30.00 "Hg15 mi
5:30 AM54 °FPassing clouds.5 mph94%29.99 "Hg15 mi
4:30 AM55 °FPassing clouds.8 mph88%29.98 "Hg15 mi
3:30 AM55 °FPassing clouds.7 mph82%29.97 "Hg15 mi
2:30 AM57 °FClear.9 mph88%29.96 "Hg15 mi
1:30 AM59 °FClear.13 mph82%29.94 "Hg15 mi
12:30 AM59 °FClear.15 mph88%29.94 "Hg15 mi
11:30 PM
Sat, Aug 29
61 °FPassing clouds.14 mph83%29.93 "Hg15 mi
10:30 PM61 °FPassing clouds.12 mph83%29.93 "Hg15 mi
9:30 PM63 °FPassing clouds.14 mph83%29.92 "Hg15 mi
8:30 PM64 °FPassing clouds.14 mph78%29.92 "Hg15 mi
7:30 PM68 °FBroken clouds.12 mph69%29.90 "Hg15 mi
6:30 PM72 °FScattered clouds.13 mph57%29.90 "Hg15 mi
5:30 PM75 °FScattered clouds.14 mph50%29.90 "Hg15 mi
4:30 PM73 °FScattered clouds.16 mph57%29.90 "Hg15 mi
3:30 PM75 °FScattered clouds.18 mph54%29.90 "Hg15 mi
2:30 PM73 °FPartly sunny.15 mph57%29.90 "Hg15 mi
2:23 PM73 °FPartly sunny.16 mph57%29.90 "Hg15 mi
1:30 PM73 °FScattered clouds.14 mph57%29.90 "Hg15 mi
12:30 PM72 °FScattered clouds.18 mph65%29.91 "Hg15 mi
11:30 AM70 °FScattered clouds.10 mph73%29.91 "Hg15 mi
10:30 AM68 °FPartly sunny.14 mph73%29.91 "Hg15 mi
Weather by CustomWeather, © 2015

See weather overviewHow to use our weather pages